This is the latest recevied weather packets stored in our database for station/object KE7JVX-3. If no packets are shown the sender has not sent any weather packets the latest 10 day(s).
| Time | Temp. | Humidity | Pressure | Rain* | Wind** | Luminosity | Snow |
|---|---|---|---|---|---|---|---|
| 1788136266 | 66° F | 46% | 761.6 mmHg | 0 in | - | - | - |
| 1788135667 | 66° F | 45% | 761.5 mmHg | 0 in | - | - | - |
| 1788135067 | 66° F | 45% | 761.6 mmHg | 0 in | - | - | - |
| 1788134467 | 67° F | 44% | 761.5 mmHg | 0 in | - | - | - |
| 1788133866 | 67° F | 42% | 761.5 mmHg | 0 in | - | - | - |
| 1788133267 | 67° F | 43% | 761.6 mmHg | 0 in | - | - | - |
| 1788132666 | 66° F | 43% | 761.6 mmHg | 0 in | - | - | - |
| 1788131649 | 66° F | 44% | 761.8 mmHg | 0 in | - | - | - |
| 1788131049 | 67° F | 42% | 761.8 mmHg | 0 in | - | - | - |
| 1788130449 | 67° F | 40% | 761.9 mmHg | 0 in | - | - | - |
| 1788129849 | 67° F | 41% | 761.9 mmHg | 0 in | - | - | - |
| 1788129249 | 66° F | 44% | 762.1 mmHg | 0 in | - | - | - |
| 1788128651 | 67° F | 42% | 762.1 mmHg | 0 in | - | - | - |
| 1788128049 | 68° F | 42% | 762.1 mmHg | 0 in | - | - | - |
| 1788127449 | 68° F | 38% | 762.4 mmHg | 0 in | - | - | - |
| 1788126849 | 68° F | 38% | 762.5 mmHg | 0 in | - | - | - |
| 1788125888 | 67° F | 42% | 762.6 mmHg | 0 in | - | - | - |
| 1788125288 | 66° F | 44% | 762.7 mmHg | 0 in | - | - | - |
| 1788124688 | 67° F | 44% | 762.8 mmHg | 0 in | - | - | - |
| 1788124090 | 66° F | 41% | 762.9 mmHg | 0 in | - | - | - |
| 1788123488 | 66° F | 38% | 763 mmHg | 0 in | - | - | - |
| 1788122888 | 66° F | 43% | 763 mmHg | 0 in | - | - | - |
| 1788122288 | 67° F | 40% | 763.1 mmHg | 0 in | - | - | - |
| 1788121688 | 66° F | 44% | 763.2 mmHg | 0 in | - | - | - |
| 1788121088 | 66° F | 49% | 763.3 mmHg | 0 in | - | - | - |
* Rain latest hour (hover to see other rain measurements)
** Current wind speed in m/s (hover to see current wind gust speed)